| time (UTC) | temp C | wind direction | speed KPH | gust KPH | rain 1hr cm | rain 24hr cm | rain mn cm | humidity % | barometer mb |
| 20260510021147 | 16 | 59 | 3.2 | 4.8 | 0.00 | 0.00 | 0.00 | 78 | 1008.8 |
| 20260510020644 | 16 | 176 | 0.0 | 4.8 | 0.00 | 0.00 | 0.00 | 78 | 1008.8 |
| 20260510020145 | 16 | 29 | 3.2 | 4.8 | 0.00 | 0.00 | 0.00 | 78 | 1008.7 |
| 20260510015148 | 16 | 173 | 0.0 | 4.8 | 0.00 | 0.00 | 0.00 | 78 | 1009.2 |
| 20260510014646 | 16 | 269 | 0.0 | 4.8 | 0.00 | 0.00 | 0.00 | 78 | 1008.9 |
| 20260510014145 | 15 | 134 | 0.0 | 1.6 | 0.00 | 0.00 | 0.00 | 78 | 1008.8 |
| 20260510013149 | 15 | 19 | 0.0 | 3.2 | 0.00 | 0.00 | 0.00 | 78 | 1008.8 |
| 20260510012644 | 15 | 82 | 0.0 | 3.2 | 0.00 | 0.00 | 0.00 | 78 | 1008.7 |
| 20260510012145 | 15 | 45 | 1.6 | 3.2 | 0.00 | 0.00 | 0.00 | 78 | 1009.0 |
| 20260510011146 | 16 | 358 | 0.0 | 3.2 | 0.00 | 0.00 | 0.00 | 77 | 1008.9 |
| 20260510010646 | 16 | 102 | 1.6 | 3.2 | 0.00 | 0.00 | 0.00 | 76 | 1009.1 |
| 20260510010147 | 16 | 88 | 3.2 | 3.2 | 0.00 | 0.00 | 0.00 | 77 | 1009.1 |
| 20260510005648 | 16 | 255 | 0.0 | 1.6 | 0.00 | 0.00 | 0.00 | 76 | 1009.1 |
| 20260510005146 | 16 | 260 | 0.0 | 1.6 | 0.00 | 0.00 | 0.00 | 76 | 1009.1 |
| 20260510004646 | 16 | 52 | 0.0 | 3.2 | 0.00 | 0.00 | 0.00 | 76 | 1009.1 |
| 20260510004146 | 16 | 261 | 0.0 | 3.2 | 0.00 | 0.00 | 0.00 | 75 | 1009.2 |
| 20260510003646 | 16 | 276 | 0.0 | 3.2 | 0.00 | 0.00 | 0.00 | 75 | 1009.2 |
| 20260510002646 | 16 | 150 | 0.0 | 3.2 | 0.00 | 0.00 | 0.00 | 75 | 1009.4 |
| 20260510002146 | 16 | 112 | 3.2 | 3.2 | 0.00 | 0.00 | 0.00 | 75 | 1009.4 |
| 20260510001646 | 16 | 107 | 1.6 | 4.8 | 0.00 | 0.00 | 0.00 | 75 | 1009.4 |
| 20260510001146 | 16 | 78 | 1.6 | 4.8 | 0.00 | 0.00 | 0.00 | 75 | 1009.5 |
| 20260510000648 | 16 | 50 | 0.0 | 3.2 | 0.00 | 0.00 | 0.00 | 75 | 1009.6 |
| 20260509235646 | 16 | 76 | 1.6 | 3.2 | 0.00 | 0.00 | 0.00 | 74 | 1010.0 |
| 20260509235147 | 16 | 102 | 3.2 | 3.2 | 0.00 | 0.00 | 0.00 | 74 | 1009.8 |
| 20260509234650 | 16 | 85 | 0.0 | 3.2 | 0.00 | 0.00 | 0.00 | 74 | 1009.8 |
| 20260509234146 | 16 | 124 | 1.6 | 3.2 | 0.00 | 0.00 | 0.00 | 74 | 1009.8 |
| 20260509233646 | 16 | 355 | 0.0 | 3.2 | 0.00 | 0.00 | 0.00 | 74 | 1009.7 |
| 20260509233146 | 16 | 95 | 0.0 | 1.6 | 0.00 | 0.00 | 0.00 | 74 | 1009.8 |
| 20260509232146 | 17 | 65 | 0.0 | 3.2 | 0.00 | 0.00 | 0.00 | 74 | 1009.8 |
| 20260509231646 | 17 | 41 | 0.0 | 3.2 | 0.00 | 0.00 | 0.00 | 74 | 1009.8 |
| 20260509230146 | 17 | 41 | 0.0 | 1.6 | 0.00 | 0.00 | 0.00 | 74 | 1010.1 |
| 20260509225146 | 17 | 134 | 0.0 | 3.2 | 0.00 | 0.00 | 0.00 | 74 | 1010.1 |
| 20260509224647 | 17 | 162 | 0.0 | 3.2 | 0.00 | 0.00 | 0.00 | 74 | 1010.1 |
| 20260509224146 | 17 | 172 | 0.0 | 3.2 | 0.00 | 0.00 | 0.00 | 74 | 1010.1 |
| 20260509223646 | 17 | 10 | 0.0 | 1.6 | 0.00 | 0.00 | 0.00 | 74 | 1010.2 |
| 20260509223145 | 17 | 18 | 0.0 | 1.6 | 0.00 | 0.00 | 0.00 | 73 | 1010.2 |
| 20260509222644 | 17 | 92 | 0.0 | 1.6 | 0.00 | 0.00 | 0.00 | 73 | 1010.2 |
| 20260509222145 | 17 | 166 | 0.0 | 0.0 | 0.00 | 0.00 | 0.00 | 73 | 1010.3 |
| 20260509221633 | 17 | 13 | 0.0 | 1.6 | 0.00 | 0.00 | 0.00 | 73 | 1010.3 |
| 20260509221132 | 17 | 322 | 0.0 | 3.2 | 0.00 | 0.00 | 0.00 | 73 | 1010.2 |
| 20260509220633 | 17 | 89 | 0.0 | 3.2 | 0.00 | 0.00 | 0.00 | 73 | 1010.3 |
| 20260509220133 | 17 | 114 | 0.0 | 3.2 | 0.00 | 0.00 | 0.00 | 72 | 1010.3 |
| 20260509215633 | 17 | 72 | 0.0 | 3.2 | 0.00 | 0.00 | 0.00 | 73 | 1010.2 |
| 20260509215120 | 18 | 134 | 0.0 | 4.8 | 0.00 | 0.00 | 0.00 | 72 | 1010.4 |
| 20260509214621 | 18 | 134 | 0.0 | 4.8 | 0.00 | 0.00 | 0.00 | 71 | 1010.4 |
| 20260509214121 | 18 | 142 | 0.0 | 3.2 | 0.00 | 0.00 | 0.00 | 71 | 1010.4 |
| 20260509213609 | 18 | 134 | 0.0 | 3.2 | 0.00 | 0.00 | 0.00 | 71 | 1010.4 |
| 20260509213056 | 18 | 134 | 0.0 | 3.2 | 0.00 | 0.00 | 0.00 | 71 | 1010.3 |
| 20260509212557 | 18 | 133 | 3.2 | 3.2 | 0.00 | 0.00 | 0.00 | 70 | 1010.3 |
| 20260509212057 | 18 | 134 | 0.0 | 3.2 | 0.00 | 0.00 | 0.00 | 71 | 1010.4 |
| 20260509211557 | 18 | 82 | 0.0 | 4.8 | 0.00 | 0.00 | 0.00 | 72 | 1010.3 |
| 20260509211045 | 18 | 130 | 3.2 | 4.8 | 0.00 | 0.00 | 0.00 | 71 | 1010.3 |
| 20260509210559 | 18 | 149 | 1.6 | 4.8 | 0.00 | 0.00 | 0.00 | 71 | 1010.4 |
| 20260509210057 | 18 | 136 | 0.0 | 4.8 | 0.00 | 0.00 | 0.00 | 71 | 1010.4 |
| 20260509205045 | 18 | 91 | 0.0 | 6.4 | 0.00 | 0.00 | 0.00 | 71 | 1010.3 |
| 20260509204545 | 18 | 130 | 1.6 | 6.4 | 0.00 | 0.00 | 0.00 | 71 | 1010.5 |
| 20260509204045 | 18 | 128 | 3.2 | 6.4 | 0.00 | 0.00 | 0.00 | 71 | 1010.7 |
| 20260509203545 | 18 | 70 | 4.8 | 6.4 | 0.00 | 0.00 | 0.00 | 71 | 1010.5 |
| 20260509203045 | 18 | 92 | 3.2 | 6.4 | 0.00 | 0.00 | 0.00 | 70 | 1010.4 |
| 20260509202545 | 19 | 124 | 3.2 | 6.4 | 0.00 | 0.00 | 0.00 | 70 | 1010.4 |
| 20260509202046 | 19 | 3 | 1.6 | 6.4 | 0.00 | 0.00 | 0.00 | 70 | 1010.4 |
| 20260509201047 | 19 | 124 | 0.0 | 6.4 | 0.00 | 0.00 | 0.00 | 68 | 1010.4 |
| 20260509200544 | 19 | 115 | 4.8 | 6.4 | 0.00 | 0.00 | 0.00 | 68 | 1010.3 |
| 20260509200044 | 19 | 97 | 6.4 | 6.4 | 0.00 | 0.00 | 0.00 | 68 | 1010.4 |
| 20260509195045 | 20 | 106 | 3.2 | 6.4 | 0.00 | 0.00 | 0.00 | 67 | 1010.3 |
| 20260509194544 | 20 | 93 | 3.2 | 6.4 | 0.00 | 0.00 | 0.00 | 67 | 1010.3 |
| 20260509194045 | 20 | 68 | 4.8 | 6.4 | 0.00 | 0.00 | 0.00 | 66 | 1010.1 |
| 20260509193545 | 20 | 103 | 3.2 | 8.0 | 0.00 | 0.00 | 0.00 | 66 | 1010.0 |
| 20260509193045 | 20 | 98 | 4.8 | 8.0 | 0.00 | 0.00 | 0.00 | 65 | 1010.1 |
| 20260509192545 | 20 | 63 | 1.6 | 8.0 | 0.00 | 0.00 | 0.00 | 65 | 1010.2 |
| 20260509192045 | 20 | 103 | 4.8 | 9.7 | 0.00 | 0.00 | 0.00 | 63 | 1010.2 |
| 20260509191552 | 20 | 94 | 4.8 | 9.7 | 0.00 | 0.00 | 0.00 | 63 | 1010.1 |
| 20260509191047 | 21 | 99 | 3.2 | 9.7 | 0.00 | 0.00 | 0.00 | 62 | 1010.1 |
| 20260509190545 | 21 | 117 | 6.4 | 9.7 | 0.00 | 0.00 | 0.00 | 61 | 1009.9 |
| 20260509190045 | 21 | 71 | 4.8 | 9.7 | 0.00 | 0.00 | 0.00 | 60 | 1009.9 |
| 20260509185545 | 21 | 95 | 3.2 | 8.0 | 0.00 | 0.00 | 0.00 | 58 | 1009.7 |
| 20260509185046 | 21 | 84 | 4.8 | 4.8 | 0.00 | 0.00 | 0.00 | 57 | 1009.5 |
| 20260509184545 | 22 | 103 | 3.2 | 4.8 | 0.00 | 0.00 | 0.00 | 55 | 1009.6 |
| 20260509182544 | 22 | 115 | 3.2 | 4.8 | 0.00 | 0.00 | 0.00 | 54 | 1009.5 |
| 20260509182047 | 22 | 74 | 1.6 | 8.0 | 0.00 | 0.00 | 0.00 | 53 | 1009.6 |
| 20260509181544 | 22 | 40 | 1.6 | 8.0 | 0.00 | 0.00 | 0.00 | 54 | 1009.5 |
| 20260509180545 | 23 | 87 | 1.6 | 8.0 | 0.00 | 0.00 | 0.00 | 52 | 1009.5 |
| 20260509175545 | 24 | 108 | 3.2 | 11.3 | 0.00 | 0.00 | 0.00 | 46 | 1009.5 |
| 20260509175045 | 26 | 111 | 6.4 | 12.9 | 0.00 | 0.00 | 0.00 | 39 | 1009.5 |
| 20260509174545 | 26 | 110 | 4.8 | 12.9 | 0.00 | 0.00 | 0.00 | 39 | 1009.3 |
| 20260509173546 | 26 | 120 | 9.7 | 16.1 | 0.00 | 0.00 | 0.00 | 38 | 1009.4 |
| 20260509173045 | 26 | 121 | 6.4 | 20.9 | 0.00 | 0.00 | 0.00 | 38 | 1009.2 |
| 20260509172546 | 25 | 119 | 12.9 | 20.9 | 0.00 | 0.00 | 0.00 | 42 | 1009.5 |
| 20260509172045 | 24 | 127 | 6.4 | 11.3 | 0.00 | 0.00 | 0.00 | 44 | 1009.4 |
| 20260509171545 | 25 | 113 | 6.4 | 11.3 | 0.00 | 0.00 | 0.00 | 41 | 1009.2 |
| 20260509171045 | 25 | 116 | 6.4 | 14.5 | 0.00 | 0.00 | 0.00 | 41 | 1009.6 |
| 20260509170545 | 25 | 68 | 4.8 | 14.5 | 0.00 | 0.00 | 0.00 | 41 | 1010.0 |
| 20260509170044 | 25 | 123 | 8.0 | 14.5 | 0.00 | 0.00 | 0.00 | 42 | 1010.0 |
| 20260509165045 | 25 | 327 | 3.2 | 19.3 | 0.00 | 0.00 | 0.00 | 43 | 1010.1 |
| 20260509164545 | 25 | 103 | 6.4 | 19.3 | 0.00 | 0.00 | 0.00 | 43 | 1010.3 |
| 20260509164045 | 25 | 98 | 6.4 | 19.3 | 0.00 | 0.00 | 0.00 | 41 | 1010.0 |
| 20260509163545 | 25 | 77 | 12.9 | 17.7 | 0.00 | 0.00 | 0.00 | 41 | 1009.9 |
| 20260509163047 | 24 | 125 | 6.4 | 16.1 | 0.00 | 0.00 | 0.00 | 45 | 1010.4 |
| 20260509162548 | 24 | 104 | 6.4 | 17.7 | 0.00 | 0.00 | 0.00 | 46 | 1010.1 |
| 20260509162044 | 23 | 115 | 14.5 | 17.7 | 0.00 | 0.00 | 0.00 | 45 | 1010.2 |
| 20260509161545 | 24 | 110 | 8.0 | 17.7 | 0.00 | 0.00 | 0.00 | 46 | 1010.3 |
| 20260509161045 | 24 | 107 | 9.7 | 17.7 | 0.00 | 0.00 | 0.00 | 46 | 1010.4 |
| 20260509160545 | 25 | 90 | 14.5 | 17.7 | 0.00 | 0.00 | 0.00 | 42 | 1010.3 |
| 20260509160057 | 25 | 93 | 11.3 | 19.3 | 0.00 | 0.00 | 0.00 | 40 | 1010.3 |
| 20260509155545 | 25 | 94 | 11.3 | 19.3 | 0.00 | 0.00 | 0.00 | 40 | 1010.4 |
| 20260509155045 | 26 | 121 | 9.7 | 14.5 | 0.00 | 0.00 | 0.00 | 38 | 1010.6 |
| 20260509154545 | 26 | 122 | 6.4 | 12.9 | 0.00 | 0.00 | 0.00 | 39 | 1010.6 |
| 20260509154045 | 25 | 126 | 6.4 | 17.7 | 0.00 | 0.00 | 0.00 | 37 | 1010.6 |
| 20260509153045 | 25 | 120 | 11.3 | 20.9 | 0.00 | 0.00 | 0.00 | 38 | 1010.7 |
| 20260509152545 | 25 | 119 | 17.7 | 20.9 | 0.00 | 0.00 | 0.00 | 39 | 1010.7 |
| 20260509152045 | 24 | 94 | 11.3 | 17.7 | 0.00 | 0.00 | 0.00 | 38 | 1010.7 |
| 20260509151545 | 24 | 112 | 9.7 | 25.7 | 0.00 | 0.00 | 0.00 | 40 | 1010.8 |
| 20260509151045 | 24 | 113 | 12.9 | 25.7 | 0.00 | 0.00 | 0.00 | 38 | 1010.6 |
| 20260509150545 | 24 | 91 | 3.2 | 22.5 | 0.00 | 0.00 | 0.00 | 38 | 1011.0 |
| 20260509150045 | 24 | 117 | 17.7 | 20.9 | 0.00 | 0.00 | 0.00 | 39 | 1010.8 |
| 20260509145545 | 24 | 121 | 6.4 | 25.7 | 0.00 | 0.00 | 0.00 | 41 | 1011.2 |
| 20260509145045 | 25 | 110 | 8.0 | 25.7 | 0.00 | 0.00 | 0.00 | 40 | 1010.9 |
| 20260509144545 | 25 | 124 | 24.1 | 25.7 | 0.00 | 0.00 | 0.00 | 41 | 1011.0 |
| 20260509144049 | 25 | 88 | 9.7 | 20.9 | 0.00 | 0.00 | 0.00 | 39 | 1010.8 |
| 20260509143045 | 25 | 114 | 6.4 | 25.7 | 0.00 | 0.00 | 0.00 | 42 | 1011.1 |
| 20260509142544 | 24 | 109 | 11.3 | 19.3 | 0.00 | 0.00 | 0.00 | 43 | 1010.9 |
| 20260509142045 | 24 | 101 | 4.8 | 19.3 | 0.00 | 0.00 | 0.00 | 42 | 1011.0 |
| 20260509141545 | 23 | 105 | 9.7 | 19.3 | 0.00 | 0.00 | 0.00 | 44 | 1010.5 |
| 20260509141044 | 24 | 102 | 6.4 | 24.1 | 0.00 | 0.00 | 0.00 | 42 | 1010.5 |
| 20260509140545 | 24 | 72 | 4.8 | 24.1 | 0.00 | 0.00 | 0.00 | 42 | 1010.5 |
| 20260509140044 | 24 | 112 | 11.3 | 17.7 | 0.00 | 0.00 | 0.00 | 45 | 1010.8 |
| 20260509135545 | 24 | 110 | 12.9 | 22.5 | 0.00 | 0.00 | 0.00 | 47 | 1010.4 |
| 20260509135045 | 25 | 65 | 9.7 | 22.5 | 0.00 | 0.00 | 0.00 | 45 | 1010.7 |
| 20260509134546 | 25 | 85 | 6.4 | 16.1 | 0.00 | 0.00 | 0.00 | 46 | 1010.8 |
| 20260509134045 | 25 | 226 | 0.0 | 22.5 | 0.00 | 0.00 | 0.00 | 46 | 1010.6 |
| 20260509133045 | 24 | 124 | 14.5 | 16.1 | 0.00 | 0.00 | 0.00 | 47 | 1010.6 |
| 20260509132545 | 23 | 129 | 12.9 | 17.7 | 0.00 | 0.00 | 0.00 | 50 | 1010.8 |
| 20260509132045 | 23 | 71 | 8.0 | 17.7 | 0.00 | 0.00 | 0.00 | 48 | 1010.8 |
| 20260509131546 | 24 | 90 | 8.0 | 16.1 | 0.00 | 0.00 | 0.00 | 47 | 1010.8 |
| 20260509131045 | 25 | 48 | 4.8 | 16.1 | 0.00 | 0.00 | 0.00 | 45 | 1010.7 |
| 20260509130545 | 24 | 137 | 0.0 | 17.7 | 0.00 | 0.00 | 0.00 | 47 | 1010.9 |
| 20260509130044 | 24 | 121 | 11.3 | 17.7 | 0.00 | 0.00 | 0.00 | 50 | 1011.0 |
| 20260509125547 | 23 | 134 | 6.4 | 11.3 | 0.00 | 0.00 | 0.00 | 50 | 1010.8 |
| 20260509125047 | 23 | 115 | 3.2 | 22.5 | 0.00 | 0.00 | 0.00 | 49 | 1011.3 |
| 20260509124545 | 23 | 96 | 9.7 | 22.5 | 0.00 | 0.00 | 0.00 | 49 | 1011.6 |
| 20260509124045 | 24 | 132 | 6.4 | 16.1 | 0.00 | 0.00 | 0.00 | 48 | 1011.4 |
| 20260509123545 | 24 | 112 | 9.7 | 16.1 | 0.00 | 0.00 | 0.00 | 48 | 1011.7 |
| 20260509123045 | 23 | 137 | 6.4 | 17.7 | 0.00 | 0.00 | 0.00 | 47 | 1011.8 |
| 20260509122545 | 23 | 123 | 8.0 | 17.7 | 0.00 | 0.00 | 0.00 | 47 | 1011.8 |
| 20260509122045 | 23 | 114 | 12.9 | 17.7 | 0.00 | 0.00 | 0.00 | 51 | 1011.9 |
| 20260509121545 | 23 | 131 | 4.8 | 17.7 | 0.00 | 0.00 | 0.00 | 50 | 1011.7 |
| 20260509121048 | 23 | 96 | 6.4 | 16.1 | 0.00 | 0.00 | 0.00 | 48 | 1011.8 |
| 20260509120545 | 23 | 123 | 4.8 | 20.9 | 0.00 | 0.00 | 0.00 | 50 | 1012.2 |
| 20260509120045 | 23 | 88 | 6.4 | 20.9 | 0.00 | 0.00 | 0.00 | 49 | 1011.9 |
| 20260509115045 | 22 | 126 | 14.5 | 20.9 | 0.00 | 0.00 | 0.00 | 53 | 1012.2 |
| 20260509114545 | 23 | 98 | 6.4 | 16.1 | 0.00 | 0.00 | 0.00 | 53 | 1012.3 |
| 20260509114044 | 22 | 69 | 9.7 | 14.5 | 0.00 | 0.00 | 0.00 | 54 | 1012.1 |
| 20260509113045 | 22 | 54 | 4.8 | 17.7 | 0.00 | 0.00 | 0.00 | 54 | 1012.5 |
| 20260509112545 | 22 | 114 | 6.4 | 17.7 | 0.00 | 0.00 | 0.00 | 55 | 1012.4 |
| 20260509112045 | 22 | 46 | 6.4 | 16.1 | 0.00 | 0.00 | 0.00 | 54 | 1012.5 |
| 20260509111546 | 22 | 133 | 3.2 | 16.1 | 0.00 | 0.00 | 0.00 | 57 | 1012.5 |
| 20260509110545 | 22 | 128 | 8.0 | 12.9 | 0.00 | 0.00 | 0.00 | 56 | 1012.4 |
| 20260509110059 | 21 | 121 | 6.4 | 16.1 | 0.00 | 0.00 | 0.00 | 57 | 1012.5 |
| 20260509105545 | 21 | 84 | 11.3 | 16.1 | 0.00 | 0.00 | 0.00 | 55 | 1012.7 |
| 20260509105050 | 21 | 114 | 3.2 | 12.9 | 0.00 | 0.00 | 0.00 | 58 | 1012.8 |
| 20260509104548 | 21 | 104 | 8.0 | 14.5 | 0.00 | 0.00 | 0.00 | 57 | 1012.8 |
| 20260509104044 | 21 | 116 | 9.7 | 17.7 | 0.00 | 0.00 | 0.00 | 56 | 1012.9 |
| 20260509103545 | 21 | 114 | 6.4 | 17.7 | 0.00 | 0.00 | 0.00 | 58 | 1013.0 |
| 20260509103045 | 21 | 91 | 9.7 | 17.7 | 0.00 | 0.00 | 0.00 | 57 | 1012.7 |
| 20260509102545 | 21 | 299 | 4.8 | 17.7 | 0.00 | 0.00 | 0.00 | 57 | 1012.9 |
| 20260509102045 | 21 | 111 | 11.3 | 17.7 | 0.00 | 0.00 | 0.00 | 57 | 1012.9 |
| 20260509101545 | 21 | 101 | 9.7 | 12.9 | 0.00 | 0.00 | 0.00 | 59 | 1012.9 |
| 20260509101045 | 20 | 96 | 6.4 | 17.7 | 0.00 | 0.00 | 0.00 | 58 | 1013.1 |
| 20260509100546 | 21 | 335 | 0.0 | 17.7 | 0.00 | 0.00 | 0.00 | 59 | 1013.1 |
| 20260509100045 | 20 | 303 | 3.2 | 16.1 | 0.00 | 0.00 | 0.00 | 60 | 1012.8 |
| 20260509095546 | 20 | 70 | 4.8 | 16.1 | 0.00 | 0.00 | 0.00 | 61 | 1013.1 |
| 20260509095044 | 20 | 333 | 4.8 | 9.7 | 0.00 | 0.00 | 0.00 | 61 | 1013.2 |
| 20260509094545 | 20 | 86 | 3.2 | 8.0 | 0.00 | 0.00 | 0.00 | 62 | 1013.0 |
| 20260509094045 | 20 | 302 | 0.0 | 8.0 | 0.00 | 0.00 | 0.00 | 63 | 1013.2 |
| 20260509093545 | 20 | 242 | 3.2 | 8.0 | 0.00 | 0.00 | 0.00 | 62 | 1013.1 |
| 20260509093045 | 20 | 117 | 3.2 | 8.0 | 0.00 | 0.00 | 0.00 | 62 | 1013.3 |
| 20260509092548 | 20 | 174 | 4.8 | 9.7 | 0.00 | 0.00 | 0.00 | 64 | 1013.2 |
| 20260509092045 | 20 | 128 | 3.2 | 9.7 | 0.00 | 0.00 | 0.00 | 65 | 1013.3 |
| 20260509091545 | 20 | 123 | 8.0 | 14.5 | 0.00 | 0.00 | 0.00 | 66 | 1013.2 |
| 20260509091047 | 20 | 138 | 3.2 | 14.5 | 0.00 | 0.00 | 0.00 | 65 | 1013.4 |
| 20260509090058 | 19 | 127 | 6.4 | 11.3 | 0.00 | 0.00 | 0.00 | 66 | 1013.1 |
| 20260509085545 | 19 | 129 | 3.2 | 9.7 | 0.00 | 0.00 | 0.00 | 67 | 1013.2 |
| 20260509085045 | 19 | 206 | 0.0 | 11.3 | 0.00 | 0.00 | 0.00 | 68 | 1013.4 |
| 20260509084545 | 18 | 113 | 6.4 | 11.3 | 0.00 | 0.00 | 0.00 | 68 | 1013.4 |
| 20260509083557 | 18 | 141 | 8.0 | 11.3 | 0.00 | 0.00 | 0.00 | 69 | 1013.1 |
| 20260509083044 | 18 | 87 | 6.4 | 14.5 | 0.00 | 0.00 | 0.00 | 67 | 1013.2 |
| 20260509082545 | 18 | 133 | 3.2 | 14.5 | 0.00 | 0.00 | 0.00 | 69 | 1013.6 |
| 20260509082044 | 18 | 120 | 8.0 | 11.3 | 0.00 | 0.00 | 0.00 | 70 | 1013.3 |
| 20260509081547 | 17 | 102 | 4.8 | 14.5 | 0.00 | 0.00 | 0.00 | 70 | 1013.6 |
| 20260509081045 | 17 | 142 | 3.2 | 14.5 | 0.00 | 0.00 | 0.00 | 70 | 1013.7 |
| 20260509080544 | 17 | 126 | 4.8 | 12.9 | 0.00 | 0.00 | 0.00 | 70 | 1013.7 |
| 20260509080059 | 17 | 88 | 3.2 | 14.5 | 0.00 | 0.00 | 0.00 | 70 | 1013.5 |
| 20260509075545 | 17 | 94 | 3.2 | 16.1 | 0.00 | 0.00 | 0.00 | 70 | 1013.8 |
| 20260509075045 | 17 | 117 | 11.3 | 16.1 | 0.00 | 0.00 | 0.00 | 69 | 1013.9 |
| 20260509074545 | 17 | 130 | 8.0 | 12.9 | 0.00 | 0.00 | 0.00 | 69 | 1013.7 |
| 20260509073545 | 17 | 104 | 4.8 | 11.3 | 0.00 | 0.00 | 0.00 | 68 | 1013.9 |
| 20260509072545 | 17 | 114 | 4.8 | 14.5 | 0.00 | 0.00 | 0.00 | 67 | 1013.9 |
| 20260509072047 | 17 | 87 | 8.0 | 14.5 | 0.00 | 0.00 | 0.00 | 65 | 1014.0 |
| 20260509071545 | 18 | 94 | 8.0 | 14.5 | 0.00 | 0.00 | 0.00 | 63 | 1014.0 |
| 20260509071044 | 18 | 122 | 4.8 | 14.5 | 0.00 | 0.00 | 0.00 | 66 | 1013.9 |
| 20260509070545 | 17 | 105 | 6.4 | 11.3 | 0.00 | 0.00 | 0.00 | 66 | 1013.7 |
| 20260509070045 | 17 | 124 | 8.0 | 11.3 | 0.00 | 0.00 | 0.00 | 67 | 1013.9 |
| 20260509065545 | 16 | 118 | 8.0 | 12.9 | 0.00 | 0.00 | 0.00 | 68 | 1013.8 |
| 20260509065045 | 17 | 115 | 6.4 | 12.9 | 0.00 | 0.00 | 0.00 | 66 | 1013.7 |
| 20260509064545 | 16 | 122 | 6.4 | 12.9 | 0.00 | 0.00 | 0.00 | 67 | 1013.9 |
| 20260509063545 | 16 | 118 | 3.2 | 14.5 | 0.00 | 0.00 | 0.00 | 69 | 1013.8 |
| 20260509063045 | 16 | 107 | 8.0 | 14.5 | 0.00 | 0.00 | 0.00 | 68 | 1013.9 |
| 20260509062548 | 16 | 111 | 11.3 | 12.9 | 0.00 | 0.00 | 0.00 | 67 | 1013.8 |
| 20260509062044 | 16 | 132 | 9.7 | 9.7 | 0.00 | 0.00 | 0.00 | 71 | 1013.9 |
| 20260509061545 | 15 | 126 | 4.8 | 12.9 | 0.00 | 0.00 | 0.00 | 72 | 1013.5 |
| 20260509060545 | 14 | 93 | 6.4 | 9.7 | 0.00 | 0.00 | 0.00 | 74 | 1013.4 |
| 20260509055548 | 13 | 112 | 1.6 | 6.4 | 0.00 | 0.00 | 0.00 | 81 | 1013.1 |
| 20260509055045 | 12 | 74 | 1.6 | 8.0 | 0.00 | 0.00 | 0.00 | 81 | 1013.4 |
| 20260509054545 | 12 | 87 | 3.2 | 8.0 | 0.00 | 0.00 | 0.00 | 82 | 1013.3 |
| 20260509054045 | 12 | 92 | 4.8 | 9.7 | 0.00 | 0.00 | 0.00 | 81 | 1013.2 |
| 20260509053545 | 12 | 125 | 3.2 | 9.7 | 0.00 | 0.00 | 0.00 | 81 | 1013.6 |
| 20260509053046 | 12 | 125 | 6.4 | 8.0 | 0.00 | 0.00 | 0.00 | 79 | 1013.4 |
| 20260509052045 | 13 | 124 | 3.2 | 8.0 | 0.00 | 0.00 | 0.00 | 80 | 1013.4 |
| 20260509051544 | 12 | 126 | 6.4 | 8.0 | 0.00 | 0.00 | 0.00 | 81 | 1013.2 |
| 20260509051044 | 12 | 113 | 4.8 | 4.8 | 0.00 | 0.00 | 0.00 | 82 | 1013.1 |
| 20260509045545 | 11 | 123 | 4.8 | 4.8 | 0.00 | 0.00 | 0.00 | 86 | 1013.0 |
| 20260509044545 | 11 | 114 | 3.2 | 3.2 | 0.00 | 0.00 | 0.00 | 86 | 1012.9 |
| 20260509043547 | 11 | 133 | 3.2 | 3.2 | 0.00 | 0.00 | 0.00 | 87 | 1013.0 |
| 20260509043045 | 10 | 128 | 3.2 | 3.2 | 0.00 | 0.00 | 0.00 | 87 | 1012.6 |
| 20260509042045 | 10 | 51 | 0.0 | 3.2 | 0.00 | 0.00 | 0.00 | 87 | 1013.0 |
| 20260509041545 | 10 | 134 | 0.0 | 3.2 | 0.00 | 0.00 | 0.00 | 88 | 1012.8 |
| 20260509041049 | 10 | 10 | 1.6 | 3.2 | 0.00 | 0.00 | 0.00 | 87 | 1013.0 |
| 20260509040545 | 10 | 73 | 1.6 | 3.2 | 0.00 | 0.00 | 0.00 | 87 | 1012.9 |
| 20260509040045 | 10 | 277 | 0.0 | 3.2 | 0.00 | 0.00 | 0.00 | 86 | 1012.7 |
| 20260509035545 | 10 | 264 | 1.6 | 3.2 | 0.00 | 0.00 | 0.00 | 86 | 1012.9 |
| 20260509035045 | 10 | 125 | 0.0 | 3.2 | 0.00 | 0.00 | 0.00 | 86 | 1013.0 |
| 20260509034545 | 10 | 48 | 1.6 | 3.2 | 0.00 | 0.00 | 0.00 | 85 | 1013.0 |
| 20260509033537 | 11 | 47 | 3.2 | 3.2 | 0.00 | 0.00 | 0.00 | 83 | 1013.2 |
| 20260509033037 | 11 | 47 | 1.6 | 1.6 | 0.00 | 0.00 | 0.00 | 83 | 1012.9 |
| 20260509032541 | 11 | 89 | 0.0 | 1.6 | 0.00 | 0.00 | 0.00 | 83 | 1013.2 |
| 20260509032038 | 11 | 100 | 0.0 | 1.6 | 0.00 | 0.00 | 0.00 | 83 | 1013.0 |
| 20260509031536 | 11 | 108 | 0.0 | 3.2 | 0.00 | 0.00 | 0.00 | 83 | 1013.1 |
| 20260509030028 | 11 | 77 | 3.2 | 9.7 | 0.00 | 0.00 | 0.00 | 84 | 1013.1 |
| 20260509025525 | 11 | 96 | 4.8 | 9.7 | 0.00 | 0.00 | 0.00 | 84 | 1013.2 |
| 20260509025025 | 11 | 87 | 3.2 | 9.7 | 0.00 | 0.00 | 0.00 | 84 | 1012.9 |
| 20260509024525 | 11 | 73 | 4.8 | 9.7 | 0.00 | 0.00 | 0.00 | 84 | 1013.1 |
| 20260509024025 | 11 | 89 | 8.0 | 9.7 | 0.00 | 0.00 | 0.00 | 84 | 1012.9 |
| 20260509023525 | 11 | 88 | 8.0 | 9.7 | 0.00 | 0.00 | 0.00 | 84 | 1013.1 |
| 20260509023025 | 11 | 82 | 6.4 | 8.0 | 0.00 | 0.00 | 0.00 | 84 | 1013.2 |
| 20260509022527 | 11 | 78 | 4.8 | 8.0 | 0.00 | 0.00 | 0.00 | 83 | 1013.2 |
| 20260509022025 | 11 | 59 | 4.8 | 6.4 | 0.00 | 0.00 | 0.00 | 83 | 1013.1 |